Temperature
21 21 21 21 24 24 23 23 24 23 24 23 22 22 23 22 22 21 18 17 17 17 17 17 17 17 17 17 17 17 17 17 17 17 17 17 17 17 17 18 18 18 18 18 18 18 18 18 18
21 21 21 23 25 24 23 24 24 24 23 22 22 22 22 21 20 19 18 17 17 17 17 17 17 17 17 17 17 17 17 17 17 17 17 17 17 17 17 17 17 17 17 17 17 17 17 17 17
21 21 22 25 24 24 23 24 24 23 22 22 22 22 22 20 19 18 17 17 17 17 17 17 17 17 17 17 17 17 17 17 17 17 17 17 17 17 17 17 17 17 17 17 17 17 17 17 17
21 22 23 25 24 24 24 24 24 23 22 22 22 22 21 19 19 18 17 17 17 17 17 17 17 17 17 17 17 17 17 17 17 17 17 17 17 17 17 17 17 17 17 17 17 17 17 17 17
21 23 24 24 24 24 24 24 24 24 23 23 22 22 20 18 18 18 17 17 17 17 17 17 17 17 17 17 17 17 17 17 17 17 17 17 17 17 17 17 17 17 17 17 17 17 17 17 17
23 25 25 24 23 24 24 23 24 24 23 22 22 22 20 19 18 18 18 17 17 17 17 17 17 17 17 17 17 17 17 16 16 16 16 17 17 17 17 16 16 16 17 17 17 17 16 16 16
24 25 24 24 23 23 24 23 24 24 23 22 22 22 20 19 18 18 17 17 17 17 17 17 17 17 17 17 17 16 16 16 16 16 16 16 16 16 16 16 16 16 16 16 16 16 16 16 16
23 25 24 24 23 23 23 23 23 23 23 22 22 22 21 19 18 18 18 17 17 17 17 17 17 16 16 16 16 16 16 16 16 16 16 16 16 16 16 16 16 16 16 16 16 16 16 16 16
23 25 24 24 24 24 23 23 22 22 22 22 21 21 20 19 18 18 18 18 17 17 17 17 17 16 16 16 16 16 16 16 16 16 16 16 16 16 16 16 16 16 16 16 16 16 16 16 16
24 24 24 24 24 24 23 23 23 23 23 22 21 20 19 19 19 19 19 18 18 18 17 17 17 17 16 16 16 16 16 16 16 16 16 16 16 16 16 16 16 16 16 16 16 16 16 16 15
24 24 24 24 23 23 24 23 23 23 23 23 22 21 20 19 19 19 19 19 18 18 17 17 17 17 16 16 16 16 16 16 16 16 16 16 16 16 16 16 16 16 15 15 15 15 15 15 15
24 24 24 24 23 23 23 23 23 23 23 22 22 21 20 20 20 20 19 19 18 18 18 17 17 17 17 16 16 16 16 16 16 16 16 16 16 16 16 16 16 15 15 15 15 15 15 15 15
24 24 23 23 23 23 23 23 23 23 22 22 21 20 20 20 20 20 19 19 18 18 18 17 17 17 17 17 16 16 16 16 16 16 16 16 16 16 16 15 15 15 15 15 15 15 15 15 15
24 24 23 23 23 23 23 23 23 22 22 21 21 21 21 20 20 20 19 19 19 18 18 17 17 17 17 17 17 16 16 16 16 16 16 16 16 15 15 15 15 15 15 15 15 15 15 15 15
23 24 24 24 24 23 24 24 24 22 22 22 22 21 21 20 20 20 20 19 19 19 18 18 17 17 17 17 17 16 16 16 16 16 16 16 15 15 15 15 15 15 15 15 15 15 15 15 14
24 24 24 24 24 23 24 24 24 22 22 22 22 22 21 20 20 20 19 19 19 19 18 18 17 17 17 17 16 16 16 16 16 16 16 16 16 15 15 15 15 15 15 15 15 15 14 14 14
24 24 24 24 24 24 24 24 24 22 22 22 22 22 21 21 20 20 19 19 19 18 18 18 18 17 17 17 16 16 16 16 16 16 15 15 15 15 15 15 15 15 15 15 14 14 14 14 14
24 24 24 24 24 24 24 24 24 22 22 22 22 22 22 21 21 20 19 19 18 18 18 18 18 17 17 17 16 16 16 16 16 15 15 15 15 15 15 15 15 14 14 14 14 14 14 14 14
25 24 24 24 24 24 24 24 24 23 22 22 22 22 22 21 21 20 19 19 18 18 18 18 18 17 17 16 16 16 16 16 15 15 15 15 15 15 15 15 14 14 14 14 14 14 14 14 14
24 24 24 24 24 24 24 24 24 23 22 22 22 22 21 21 21 20 19 19 19 18 18 18 18 17 17 17 16 16 16 15 15 15 15 15 15 15 15 14 14 14 14 14 14 14 14 13 13
24 24 24 24 23 23 24 24 24 23 22 21 21 21 21 21 21 20 19 19 19 18 18 18 18 17 17 17 16 16 16 15 15 15 15 15 15 15 14 14 14 14 14 14 14 14 13 13 13
24 24 24 23 24 24 23 23 24 24 23 22 21 21 20 20 20 20 19 19 18 18 18 18 17 17 17 16 16 16 16 15 15 15 15 15 15 14 14 14 14 14 14 14 13 13 13 13 13
24 23 23 23 23 24 24 24 24 24 23 23 22 21 20 20 19 19 19 18 18 18 18 17 17 17 17 16 16 16 15 15 15 15 15 15 14 14 14 14 14 14 14 13 13 13 13 13 13
23 23 23 23 24 23 23 23 23 23 23 23 22 21 20 19 19 18 18 18 18 18 18 17 17 17 17 16 16 16 15 15 15 15 15 15 14 14 14 14 14 14 13 13 13 13 13 13 13
23 23 23 23 23 23 23 23 23 23 23 22 22 21 20 19 19 18 18 18 18 18 17 17 17 16 16 16 16 16 15 15 15 15 15 15 14 14 14 14 14 13 13 13 13 13 13 13 13
23 24 23 22 23 23 23 23 23 22 22 21 21 20 19 19 18 18 18 17 17 17 17 17 17 16 16 16 16 15 15 15 15 15 15 15 14 14 14 14 14 13 13 13 13 13 13 13 13
23 23 24 23 23 23 23 23 23 22 22 21 21 20 19 19 18 18 17 17 17 17 17 17 16 16 16 16 15 15 15 15 15 15 14 14 14 14 14 14 14 13 13 13 13 13 13 13 13
23 23 23 23 22 22 22 23 23 22 22 21 21 20 19 19 18 18 17 17 17 17 16 16 16 16 15 15 15 15 15 15 15 14 14 14 14 14 14 14 14 13 13 13 13 13 13 12 12
22 22 22 23 23 22 22 23 23 23 22 21 21 20 19 18 18 17 17 17 17 16 16 16 16 15 15 15 15 15 15 15 14 14 14 14 14 14 14 13 13 13 13 13 13 13 12 12 12
22 22 22 22 22 22 22 22 23 22 21 21 20 19 18 18 17 16 16 16 16 16 16 16 15 15 15 15 15 15 15 14 14 14 14 14 14 14 13 13 13 13 13 13 13 12 12 12 12
Wind_Speed
6 4 2 2 2 4 7 5 4 4 4 6 6 5 6 7 5 4 4 4 3 3 4 4 5 5 5 6 6 7 7 8 8 8 8 7 7 7 6 6 6 6 6 7 7 8 8 8 8
3 2 2 1 1 5 7 5 6 6 6 5 5 5 6 7 6 5 4 4 3 4 5 7 7 6 7 7 7 7 7 8 8 8 8 8 8 7 7 7 6 6 7 7 8 8 8 8 8
3 1 1 1 3 5 7 6 7 7 5 3 4 5 5 5 5 4 4 4 4 5 6 8 7 7 7 7 7 7 8 8 9 9 9 9 9 9 9 9 9 7 7 8 8 8 8 8 7
1 1 0 3 8 7 6 6 6 6 4 4 4 6 5 5 4 5 5 5 5 5 6 8 7 7 7 8 8 8 8 9 9 9 9 9 9 9 10 9 9 9 9 9 9 9 9 8 8
1 0 3 6 7 6 5 5 4 4 4 4 4 6 7 6 6 7 6 5 5 5 6 8 8 8 8 8 8 8 9 9 10 10 10 10 10 10 9 9 9 9 9 9 9 9 9 9 9
1 1 3 6 7 6 5 3 3 4 5 5 5 6 6 6 6 6 6 5 6 5 5 7 8 8 9 8 8 9 10 10 11 11 11 11 10 10 10 9 9 9 9 9 8 8 9 9 9
1 2 4 6 6 5 4 3 3 4 5 4 4 5 6 6 5 5 5 5 5 5 5 6 6 8 8 9 9 10 10 11 11 12 11 11 11 11 10 9 9 8 9 8 8 8 8 9 9
0 2 5 5 6 5 4 3 2 3 4 4 2 4 6 7 6 6 5 5 5 5 5 5 6 6 7 8 10 9 9 10 10 11 10 9 9 9 8 8 9 9 9 8 8 9 9 10 10
1 3 4 4 4 4 4 4 3 2 4 4 3 4 7 9 8 6 5 4 4 4 4 4 5 6 6 7 8 7 7 7 6 8 7 4 6 8 8 10 10 10 10 10 10 10 10 9 10
1 3 4 3 3 4 4 3 4 4 4 5 6 6 8 8 7 6 5 4 4 4 4 4 4 5 6 6 6 5 6 6 6 6 5 6 7 7 8 10 10 10 10 10 10 8 6 4 6
2 3 4 3 3 3 4 3 3 3 3 4 6 9 9 8 7 6 5 4 4 4 4 4 4 5 5 4 4 4 4 5 5 6 6 5 5 5 5 6 7 7 6 7 7 5 6 6 6
3 3 3 4 4 3 3 3 3 2 2 3 6 8 9 8 6 5 5 4 4 4 4 4 3 4 4 4 4 3 4 4 4 5 5 4 4 4 5 4 6 5 5 5 5 5 6 6 6
4 3 3 3 3 3 3 3 2 2 2 4 7 8 8 7 6 5 4 4 4 4 4 4 3 3 4 4 3 3 4 4 5 4 4 5 4 4 4 5 5 5 5 5 4 5 6 6 6
3 3 3 3 3 4 4 3 3 3 4 6 7 8 7 7 6 5 4 4 4 4 4 4 3 3 3 3 2 3 3 3 4 4 4 5 4 4 4 4 4 4 4 4 4 5 5 5 5
3 3 3 3 3 3 4 4 4 4 6 7 7 7 6 6 6 5 4 4 4 4 4 4 3 3 3 3 2 2 2 3 3 3 4 4 4 4 4 3 4 4 4 4 4 5 4 4 4
4 4 3 3 3 3 5 3 4 5 7 7 6 7 6 6 5 5 5 4 4 4 4 5 4 3 3 2 2 2 2 2 2 3 3 4 3 3 4 3 3 3 3 3 3 3 3 3 3
4 3 3 3 3 4 5 2 3 5 7 7 6 6 6 6 5 5 5 5 5 5 4 5 5 4 3 3 2 2 2 2 2 2 2 2 3 3 3 2 2 3 2 2 2 2 2 3 3
3 3 3 3 3 5 6 4 3 5 7 6 6 6 6 5 5 5 5 6 5 5 5 5 5 4 4 3 2 2 2 2 2 1 2 2 2 2 2 2 1 2 2 2 2 2 2 2 2
4 4 4 2 1 4 5 4 3 5 6 7 7 7 6 6 5 4 5 6 6 6 5 5 5 4 4 3 2 2 1 1 2 1 2 2 1 2 2 1 1 1 1 1 1 2 2 1 1
7 6 4 2 2 4 4 4 3 4 5 6 6 6 6 6 5 5 6 6 7 6 6 5 5 4 4 2 2 1 1 1 1 1 1 1 1 1 1 1 1 1 1 1 1 1 1 1 0
7 6 5 3 2 4 4 4 4 4 4 4 4 5 5 5 6 6 7 6 6 6 6 5 5 5 4 4 2 2 2 1 1 1 1 1 1 1 0 0 0 1 1 1 0 1 1 1 1
5 4 5 5 5 3 3 3 3 4 4 4 4 5 5 5 5 5 6 7 6 5 5 5 5 5 4 4 3 3 2 2 1 1 1 1 1 1 1 1 1 1 1 1 1 1 1 1 1
3 2 4 6 6 5 5 5 1 3 3 3 3 4 5 5 6 6 6 6 5 4 4 4 5 5 5 4 4 3 3 2 1 1 1 1 1 1 1 1 2 1 1 1 1 1 2 2 2
4 4 4 5 6 6 4 5 2 1 2 2 3 4 4 5 5 6 5 5 5 5 5 5 5 5 5 5 5 4 3 3 2 2 1 1 1 1 1 2 2 2 2 2 2 2 3 2 2
6 5 4 5 5 4 2 4 2 1 1 2 2 2 3 4 5 6 6 6 6 6 5 5 5 5 5 5 5 4 4 4 3 3 2 2 1 2 2 2 3 3 2 3 3 3 3 3 3
7 7 5 4 4 3 4 4 1 2 1 1 0 2 3 4 4 5 5 6 6 6 5 5 5 5 4 5 4 4 3 3 2 3 3 3 2 2 2 3 3 3 3 3 4 4 4 3 4
7 7 5 6 4 5 4 3 2 2 1 1 2 3 3 3 4 5 5 5 6 6 5 5 4 4 4 4 4 3 3 3 3 3 3 3 3 2 3 3 4 4 4 4 4 4 4 4 4
4 5 5 5 4 5 5 6 4 3 2 1 1 2 2 3 3 3 4 5 5 5 5 4 4 4 4 4 4 3 3 3 3 3 3 3 3 3 3 4 4 4 4 5 5 4 4 4 4
5 6 6 5 6 5 5 3 1 2 2 2 2 1 2 3 3 3 3 4 4 5 4 4 3 3 3 4 4 4 4 4 3 3 3 4 4 4 4 4 4 4 4 4 4 5 5 5 4
6 7 8 7 6 7 6 3 3 2 1 2 2 1 2 3 3 3 3 3 4 4 4 3 3 3 2 3 4 4 4 4 4 4 4 4 4 4 4 4 4 4 4 4 5 5 5 5 5
Wind_Direction
172 175 206 228 187 100 81 79 82 88 77 65 61 62 64 49 35 66 74 63 41 44 47 72 59 56 66 67 69 69 67 68 70 73 72 72 74 74 72 73 81 85 87 90 92 93 93 95 94
157 166 219 234 148 108 86 85 87 78 93 93 70 65 68 66 57 81 84 72 59 55 57 62 61 59 62 65 68 71 69 69 70 69 67 66 69 71 73 74 76 83 87 92 94 91 88 88 86
138 210 290 109 82 83 94 91 92 96 97 82 76 58 53 67 75 78 76 87 77 65 63 68 55 60 63 65 69 70 70 72 72 69 66 64 67 69 71 72 69 72 79 85 90 90 89 88 85
214 195 125 98 91 77 90 99 108 119 100 74 89 83 78 65 77 85 95 93 83 72 68 72 56 59 64 68 70 71 72 74 75 72 68 67 67 68 68 67 68 70 72 75 81 87 87 85 84
244 249 116 108 97 91 86 88 110 105 95 91 90 92 93 87 93 99 100 91 83 75 69 75 63 59 60 66 72 74 74 75 76 74 70 70 71 71 72 69 70 74 77 75 76 80 83 80 78
167 161 123 113 107 103 100 105 117 96 98 104 103 101 97 109 112 105 99 92 85 79 77 82 81 68 64 65 72 74 75 74 74 73 70 70 71 72 71 69 69 76 78 74 74 79 80 78 78
77 100 108 116 118 115 102 97 102 105 104 100 111 105 114 125 121 117 110 102 92 87 81 79 84 90 88 80 76 75 73 73 74 72 72 72 71 69 69 71 71 78 81 78 76 76 75 77 79
45 128 125 122 125 110 109 112 93 101 99 110 129 111 123 135 136 133 123 112 100 92 85 84 81 80 87 92 85 77 73 73 75 73 71 75 85 80 76 81 77 84 85 81 78 76 76 79 78
223 150 131 131 131 119 128 131 117 109 121 124 116 96 112 131 144 143 135 123 111 99 90 92 89 84 83 84 91 91 89 80 90 94 88 82 76 76 85 73 77 81 83 82 82 81 82 87 86
175 128 119 125 134 132 139 137 140 148 132 129 129 124 133 146 152 150 144 135 123 113 99 92 94 93 89 86 90 81 76 74 63 68 72 68 67 70 80 94 89 88 88 90 84 87 98 92 87
104 115 128 140 145 148 152 145 154 153 132 147 148 147 152 156 157 152 142 132 118 114 108 100 98 96 92 93 83 77 72 71 67 62 72 75 75 83 83 92 104 99 98 85 91 89 72 75 70
114 116 139 144 153 173 168 160 159 173 114 135 147 150 155 162 161 156 143 134 130 125 118 112 110 107 99 93 89 84 79 72 67 64 65 71 72 70 74 76 79 81 77 72 69 66 72 72 74
133 132 139 156 171 182 174 174 162 154 143 143 147 155 165 168 164 160 151 143 139 135 132 120 121 113 106 95 90 89 78 68 72 60 59 68 69 71 77 78 77 74 74 75 72 71 69 65 63
130 146 154 168 173 181 180 170 173 158 161 157 160 164 170 173 174 171 170 163 153 150 138 132 133 126 124 122 110 87 85 87 72 67 67 70 73 74 69 72 74 73 71 69 75 76 73 68 65
161 161 164 182 194 190 195 190 185 172 173 172 173 172 175 179 185 192 185 181 169 156 146 138 140 137 135 118 99 95 91 83 77 77 76 78 70 71 74 71 76 76 80 80 71 75 72 73 74
192 201 188 169 191 194 223 204 164 173 184 184 184 179 184 191 198 200 195 188 180 168 155 146 145 148 135 125 124 109 105 92 80 81 73 78 74 65 68 68 73 79 78 81 79 74 79 78 70
203 212 206 173 192 203 223 229 165 182 193 196 196 194 193 192 197 200 197 191 186 179 170 157 152 153 143 141 131 117 110 102 78 76 69 61 64 66 78 69 64 81 86 79 77 74 74 77 71
216 228 220 212 187 219 229 233 181 191 206 210 206 205 200 201 195 189 188 188 187 183 180 166 156 162 144 147 141 130 118 105 84 60 63 57 51 58 78 93 92 84 88 82 88 84 75 72 77
246 244 247 239 218 237 245 248 209 197 211 218 214 212 207 202 192 178 175 179 181 179 183 174 170 165 154 156 170 164 147 130 110 71 56 75 62 61 78 68 66 65 83 90 107 105 115 104 75
240 244 243 226 221 248 253 251 219 202 211 221 222 210 208 200 186 177 175 174 176 175 184 185 178 170 166 166 170 160 139 137 91 86 86 106 106 86 84 82 87 99 91 92 96 144 157 136 183
232 242 248 251 223 219 254 235 201 188 200 214 225 220 212 203 193 182 177 172 171 177 183 184 179 173 169 165 163 149 138 170 161 152 115 117 121 117 132 104 67 103 136 109 161 195 197 176 164
230 232 244 242 246 232 249 258 197 192 194 202 210 212 213 204 197 188 178 172 175 181 182 186 180 179 170 167 179 185 190 193 203 189 163 171 171 161 177 200 216 196 173 164 205 217 239 236 215
236 215 224 239 248 250 234 249 201 159 206 215 214 208 204 201 195 192 190 181 171 169 174 184 180 178 171 179 183 204 208 208 196 183 187 197 179 197 197 214 215 213 202 202 211 230 259 252 254
183 185 190 221 236 241 243 242 243 188 267 262 223 205 196 192 192 191 186 178 168 166 167 175 182 181 178 190 198 209 206 206 200 203 207 210 193 209 206 221 226 225 221 215 220 219 231 255 256
207 226 223 214 216 229 209 238 244 29 333 295 262 206 188 184 184 183 181 179 172 170 172 173 178 182 186 197 205 212 218 219 212 206 202 218 217 221 222 226 236 239 235 228 225 229 234 238 243
214 232 242 250 242 230 205 230 176 68 10 337 232 162 152 164 173 178 179 179 174 170 170 174 178 184 190 203 212 214 213 220 217 218 216 225 232 237 242 243 247 245 242 235 229 236 236 240 240
213 224 252 263 260 253 218 210 200 151 111 85 100 128 143 152 161 171 174 176 173 171 172 179 182 187 195 205 206 207 208 215 225 234 230 235 244 249 246 243 245 244 243 239 231 234 232 238 240
239 208 219 238 243 244 236 229 220 184 178 150 135 138 137 148 155 161 167 175 174 169 173 178 189 191 194 204 203 212 219 220 235 238 238 246 250 250 247 246 248 244 238 229 225 232 233 232 230
189 200 220 235 248 253 251 229 158 199 198 209 201 176 162 158 150 148 158 170 169 165 168 177 184 193 198 208 214 219 221 228 232 242 242 249 251 251 250 257 261 257 241 223 215 227 225 234 230
228 225 223 236 237 243 259 252 115 159 197 217 212 181 161 150 147 140 146 154 162 167 173 185 194 203 209 216 220 230 231 235 241 245 245 253 259 262 262 262 263 260 251 240 224 222 223 229 234
Height
1505 1507 1508 1510 1509 1509 1515 1515 1512 1514 1515 1518 1518 1518 1518 1519 1521 1528 1529 1526 1525 1524 1523 1522 1520 1519 1519 1519 1518 1518 1518 1518 1517 1517 1517 1517 1517 1516 1516 1516 1517 1517 1517 1517 1517 1517 1518 1518 1518
1505 1507 1510 1510 1506 1514 1519 1514 1514 1515 1518 1520 1520 1520 1520 1523 1525 1527 1527 1526 1526 1525 1524 1523 1521 1521 1520 1520 1519 1519 1519 1518 1518 1518 1518 1518 1517 1517 1517 1517 1517 1517 1517 1518 1518 1518 1518 1518 1518
1506 1507 1510 1507 1509 1514 1518 1514 1515 1518 1520 1520 1521 1522 1523 1526 1527 1528 1528 1527 1527 1526 1525 1524 1523 1522 1522 1521 1521 1520 1520 1519 1519 1519 1519 1518 1518 1518 1518 1518 1518 1518 1518 1518 1518 1518 1519 1519 1518
1508 1510 1510 1508 1514 1514 1514 1514 1517 1519 1521 1521 1521 1523 1526 1529 1529 1529 1529 1528 1528 1527 1527 1525 1524 1524 1523 1522 1522 1521 1521 1521 1520 1520 1520 1519 1519 1519 1519 1519 1519 1519 1519 1519 1519 1520 1519 1519 1519
1510 1510 1509 1513 1515 1515 1515 1517 1518 1518 1520 1522 1522 1524 1527 1530 1530 1530 1530 1530 1529 1529 1528 1527 1526 1525 1524 1523 1523 1523 1522 1522 1522 1521 1521 1520 1520 1520 1520 1520 1520 1520 1520 1520 1520 1520 1520 1521 1520
1512 1509 1511 1516 1517 1517 1517 1519 1519 1519 1521 1523 1524 1525 1529 1531 1531 1531 1531 1531 1531 1530 1529 1528 1527 1526 1526 1525 1524 1524 1524 1523 1523 1522 1522 1521 1521 1521 1521 1521 1521 1521 1521 1522 1522 1522 1522 1522 1522
1513 1510 1513 1515 1518 1518 1519 1520 1520 1520 1521 1524 1525 1526 1529 1531 1532 1532 1532 1532 1532 1531 1531 1530 1529 1528 1527 1526 1526 1526 1525 1525 1524 1524 1523 1523 1522 1522 1522 1522 1522 1523 1523 1523 1523 1523 1523 1523 1523
1513 1512 1514 1515 1518 1519 1521 1522 1522 1522 1523 1526 1526 1526 1529 1532 1532 1532 1533 1533 1533 1532 1532 1531 1531 1530 1530 1529 1528 1527 1527 1527 1526 1526 1525 1524 1524 1523 1522 1523 1523 1524 1524 1524 1524 1524 1524 1524 1524
1513 1513 1516 1517 1518 1519 1521 1522 1523 1524 1524 1526 1527 1528 1530 1531 1532 1533 1534 1534 1534 1533 1533 1532 1532 1532 1532 1531 1530 1530 1529 1529 1528 1528 1527 1526 1526 1524 1524 1524 1524 1525 1525 1526 1526 1526 1525 1525 1526
1513 1513 1516 1516 1516 1518 1520 1521 1523 1523 1524 1525 1527 1529 1530 1531 1532 1533 1534 1534 1534 1534 1534 1534 1533 1533 1533 1533 1532 1532 1532 1531 1531 1530 1529 1528 1527 1526 1525 1525 1526 1526 1527 1527 1527 1527 1527 1527 1528
1513 1514 1515 1517 1518 1519 1520 1522 1523 1522 1523 1525 1527 1529 1531 1532 1533 1533 1534 1534 1535 1535 1535 1535 1535 1534 1534 1534 1534 1534 1533 1533 1532 1532 1531 1530 1529 1528 1528 1528 1528 1529 1529 1529 1529 1529 1529 1529 1529
1514 1515 1516 1518 1520 1520 1520 1521 1522 1522 1524 1525 1527 1529 1530 1532 1533 1533 1534 1535 1535 1536 1536 1536 1536 1536 1535 1535 1535 1535 1535 1535 1534 1534 1533 1532 1531 1531 1531 1530 1530 1530 1530 1530 1530 1530 1530 1530 1530
1514 1516 1518 1519 1520 1520 1521 1521 1522 1523 1525 1526 1527 1529 1530 1531 1533 1534 1535 1535 1536 1536 1536 1536 1536 1537 1537 1536 1536 1536 1536 1536 1536 1534 1534 1533 1533 1533 1533 1532 1532 1532 1532 1532 1531 1531 1531 1531 1531
1516 1517 1518 1519 1519 1520 1520 1521 1522 1523 1525 1526 1527 1529 1530 1531 1533 1534 1535 1535 1536 1536 1537 1537 1537 1537 1537 1537 1538 1538 1538 1537 1537 1536 1535 1535 1535 1535 1534 1534 1534 1533 1533 1533 1533 1533 1532 1532 1532
1517 1516 1517 1518 1518 1519 1520 1520 1520 1523 1524 1525 1527 1528 1530 1531 1532 1533 1534 1535 1536 1537 1537 1537 1538 1538 1538 1539 1539 1539 1538 1539 1538 1538 1537 1537 1536 1536 1536 1536 1535 1535 1535 1534 1534 1534 1533 1533 1533
1515 1515 1517 1517 1517 1518 1520 1520 1519 1522 1523 1524 1525 1527 1529 1530 1531 1532 1533 1534 1535 1536 1537 1537 1538 1538 1539 1539 1539 1539 1539 1539 1539 1539 1539 1538 1538 1537 1537 1536 1536 1536 1536 1535 1535 1535 1534 1534 1534
1513 1515 1516 1515 1515 1516 1516 1517 1518 1521 1522 1523 1524 1525 1527 1528 1530 1531 1532 1533 1534 1536 1537 1537 1538 1538 1539 1539 1539 1539 1540 1539 1540 1539 1539 1539 1538 1538 1538 1537 1537 1537 1536 1536 1536 1535 1535 1535 1534
1515 1514 1514 1513 1513 1514 1514 1514 1516 1519 1521 1521 1522 1524 1525 1527 1528 1529 1530 1532 1533 1535 1536 1537 1537 1538 1538 1539 1539 1539 1540 1540 1540 1540 1539 1539 1539 1538 1538 1537 1537 1537 1537 1536 1536 1535 1535 1535 1534
1510 1512 1513 1512 1512 1513 1512 1513 1513 1517 1518 1519 1520 1522 1523 1525 1527 1528 1529 1530 1532 1533 1535 1536 1537 1538 1538 1538 1539 1539 1539 1539 1539 1539 1539 1539 1538 1538 1538 1538 1537 1537 1537 1536 1536 1535 1535 1535 1535
1511 1512 1512 1511 1512 1512 1511 1511 1511 1514 1516 1517 1518 1519 1521 1523 1525 1526 1528 1529 1531 1532 1534 1535 1536 1537 1537 1537 1538 1538 1538 1539 1539 1538 1538 1538 1538 1538 1538 1537 1537 1536 1536 1536 1536 1535 1535 1535 1535
1510 1511 1511 1512 1512 1511 1512 1512 1509 1511 1514 1516 1517 1518 1520 1521 1523 1525 1526 1528 1529 1531 1533 1534 1535 1536 1536 1537 1537 1537 1537 1538 1538 1538 1538 1538 1538 1537 1537 1537 1536 1536 1536 1536 1535 1535 1534 1534 1534
1511 1509 1510 1512 1512 1512 1513 1516 1507 1507 1510 1513 1515 1517 1518 1520 1522 1523 1525 1526 1528 1530 1531 1533 1534 1535 1535 1536 1536 1536 1537 1537 1538 1538 1537 1537 1537 1537 1536 1536 1535 1535 1535 1535 1535 1535 1534 1534 1534
1508 1509 1510 1510 1511 1512 1510 1513 1507 1506 1508 1510 1512 1514 1516 1518 1520 1521 1523 1525 1526 1528 1529 1531 1533 1534 1534 1535 1535 1535 1536 1536 1536 1536 1536 1536 1536 1536 1535 1535 1534 1534 1534 1534 1534 1533 1533 1533 1533
1509 1510 1510 1510 1509 1517 1511 1513 1512 1505 1507 1508 1510 1512 1514 1516 1518 1520 1521 1523 1524 1526 1527 1529 1530 1532 1532 1533 1534 1534 1535 1535 1535 1535 1535 1535 1535 1534 1534 1533 1533 1533 1533 1532 1532 1532 1531 1532 1532
1507 1510 1516 1517 1517 1514 1508 1511 1510 1504 1506 1508 1509 1511 1513 1514 1516 1517 1519 1521 1522 1524 1525 1527 1528 1530 1530 1531 1532 1533 1533 1534 1534 1534 1534 1534 1534 1533 1533 1532 1532 1531 1531 1531 1530 1530 1530 1530 1530
1504 1505 1515 1521 1517 1510 1508 1510 1505 1505 1507 1508 1509 1510 1512 1513 1514 1516 1517 1519 1520 1522 1523 1525 1526 1527 1528 1529 1530 1531 1532 1532 1532 1532 1532 1532 1532 1531 1531 1530 1530 1529 1528 1528 1528 1528 1528 1528 1528
1504 1504 1502 1506 1508 1512 1506 1504 1503 1504 1506 1507 1508 1509 1510 1512 1513 1514 1515 1517 1518 1520 1521 1523 1524 1525 1526 1527 1528 1529 1530 1530 1530 1530 1530 1530 1530 1529 1528 1528 1527 1526 1525 1525 1525 1525 1525 1526 1526
1502 1502 1506 1509 1516 1516 1510 1506 1503 1502 1503 1505 1507 1508 1510 1511 1512 1513 1514 1515 1516 1518 1519 1521 1522 1523 1524 1525 1526 1527 1528 1528 1528 1528 1527 1528 1527 1527 1526 1525 1525 1523 1522 1522 1522 1522 1523 1523 1523
1505 1505 1504 1504 1505 1512 1514 1507 1496 1499 1501 1503 1505 1507 1508 1509 1510 1511 1512 1513 1515 1516 1517 1519 1520 1521 1522 1523 1524 1524 1525 1525 1525 1526 1525 1525 1525 1524 1523 1522 1521 1520 1519 1519 1519 1519 1520 1520 1521
1500 1500 1501 1507 1506 1505 1507 1506 1496 1499 1501 1503 1505 1507 1508 1509 1510 1510 1511 1512 1513 1514 1516 1517 1518 1519 1519 1520 1521 1522 1522 1523 1523 1523 1523 1522 1522 1521 1520 1520 1519 1518 1517 1517 1517 1517 1517 1518 1518